Starlink 35267

operational
NORAD ID: 65592 Int'l Des: 2025-207 Owner: SPXS Country: US Constellation: starlink
NOTLE

Über Starlink 35267

Beschreibung wird geladen...

Live-Position

3D-Globus wird geladen...

Nächste Überflüge

Höhenverlauf

Altitude vs Time

uPlot chart will show altitude changes over time

Zweizeiliger Elementsatz

1 65592U 25207A 25355.16668980 -.01658612 00000-0 -77258-1 0 9998
2 65592 97.6027 61.1074 0002035 71.9824 17.9055 15.23287345 5877
Epoch: 21. Dez. 2025 • Age: 6 hours

Aktueller Status

Höhe 511.1 km
Geschwindigkeit 7.62 km/s
Subsatellitenpunkt 82.36°N, 78.35°E
Startdatum 13. Sept. 2025
Alter 0.2 years
Typ internet

Technische Details

Klassifizierung Payload
Masse 575.00 kg
Trockenmasse 530.00 kg
Gesamtmasse 575.00 kg
Länge 0.30 m
Durchmesser 4.10 m
Spannweite 29.00 m
Form Box + pan
Hersteller SPXS
Bus-Typ Starlink V2MO
Phasenstatus In Orbit
Besitzer/Staat SPXS/US

Große Konstellationen

Loading constellations...